owner,sensor,date,latitude,longitude,air_temperature,qcFlag 
COMPS,ioos:station:USF.COMPS:SHP:1,2015-08-01T00:00:00Z,30.0600,-84.2910,29.91,1111122 
COMPS,ioos:station:USF.COMPS:SHP:1,2015-08-01T00:06:00Z,30.0600,-84.2910,29.79,1111122 
COMPS,ioos:station:USF.COMPS:SHP:1,2015-08-01T00:12:00Z,30.0600,-84.2910,29.86,1111122 
COMPS,ioos:station:USF.COMPS:SHP:1,2015-08-01T00:18:00Z,30.0600,-84.2910,29.96,1111122 
COMPS,ioos:station:USF.COMPS:SHP:1,2015-08-01T00:24:00Z,30.0600,-84.2910,29.81,1111122 
COMPS,ioos:station:USF.COMPS:SHP:1,2015-08-01T00:30:00Z,30.0600,-84.2910,29.74,1111122 
COMPS,ioos:station:USF.COMPS:SHP:1,2015-08-01T00:36:00Z,30.0600,-84.2910,29.74,1111122 
COMPS,ioos:station:USF.COMPS:SHP:1,2015-08-01T00:42:00Z,30.0600,-84.2910,29.9,1111122 
COMPS,ioos:station:USF.COMPS:SHP:1,2015-08-01T00:48:00Z,30.0600,-84.2910,29.72,1111122 
COMPS,ioos:station:USF.COMPS:SHP:1,2015-08-01T00:54:00Z,30.0600,-84.2910,29.64,1111122 
COMPS,ioos:station:USF.COMPS:SHP:1,2015-08-01T01:00:00Z,30.0600,-84.2910,29.59,1111122 
COMPS,ioos:station:USF.COMPS:SHP:1,2015-08-01T01:06:00Z,30.0600,-84.2910,29.7,1111122 
COMPS,ioos:station:USF.COMPS:SHP:1,2015-08-01T01:12:00Z,30.0600,-84.2910,29.6,1111122 
COMPS,ioos:station:USF.COMPS:SHP:1,2015-08-01T01:18:00Z,30.0600,-84.2910,29.57,1111122 
COMPS,ioos:station:USF.COMPS:SHP:1,2015-08-01T01:24:00Z,30.0600,-84.2910,29.55,1111122 
COMPS,ioos:station:USF.COMPS:SHP:1,2015-08-01T01:30:00Z,30.0600,-84.2910,29.57,1111122 
COMPS,ioos:station:USF.COMPS:SHP:1,2015-08-01T01:36:00Z,30.0600,-84.2910,29.52,1111122 
COMPS,ioos:station:USF.COMPS:SHP:1,2015-08-01T01:42:00Z,30.0600,-84.2910,29.5,1111122 
COMPS,ioos:station:USF.COMPS:SHP:1,2015-08-01T01:48:00Z,30.0600,-84.2910,29.44,1111122 
COMPS,ioos:station:USF.COMPS:SHP:1,2015-08-01T01:54:00Z,30.0600,-84.2910,29.51,1111122 
COMPS,ioos:station:USF.COMPS:SHP:1,2015-08-01T03:00:00Z,30.0600,-84.2910,28.11,1111122 
COMPS,ioos:station:USF.COMPS:SHP:1,2015-08-01T03:06:00Z,30.0600,-84.2910,28.12,1111122 
COMPS,ioos:station:USF.COMPS:SHP:1,2015-08-01T03:12:00Z,30.0600,-84.2910,28.3,1111122 
COMPS,ioos:station:USF.COMPS:SHP:1,2015-08-01T03:18:00Z,30.0600,-84.2910,28.11,1111122 
COMPS,ioos:station:USF.COMPS:SHP:1,2015-08-01T03:24:00Z,30.0600,-84.2910,28.02,1111122 
COMPS,ioos:station:USF.COMPS:SHP:1,2015-08-01T03:30:00Z,30.0600,-84.2910,27.96,1111122 
COMPS,ioos:station:USF.COMPS:SHP:1,2015-08-01T03:36:00Z,30.0600,-84.2910,28.09,1111122 
COMPS,ioos:station:USF.COMPS:SHP:1,2015-08-01T03:42:00Z,30.0600,-84.2910,28.03,1111122 
COMPS,ioos:station:USF.COMPS:SHP:1,2015-08-01T03:48:00Z,30.0600,-84.2910,27.96,1111122 
COMPS,ioos:station:USF.COMPS:SHP:1,2015-08-01T03:54:00Z,30.0600,-84.2910,27.96,1111122 
COMPS,ioos:station:USF.COMPS:SHP:1,2015-08-01T04:00:00Z,30.0600,-84.2910,28.22,1111122 
COMPS,ioos:station:USF.COMPS:SHP:1,2015-08-01T04:06:00Z,30.0600,-84.2910,28.29,1111122 
COMPS,ioos:station:USF.COMPS:SHP:1,2015-08-01T04:12:00Z,30.0600,-84.2910,28.31,1111122 
COMPS,ioos:station:USF.COMPS:SHP:1,2015-08-01T04:18:00Z,30.0600,-84.2910,28.18,1111122 
COMPS,ioos:station:USF.COMPS:SHP:1,2015-08-01T04:24:00Z,30.0600,-84.2910,28.39,1111122 
COMPS,ioos:station:USF.COMPS:SHP:1,2015-08-01T04:30:00Z,30.0600,-84.2910,28.58,1111122 
COMPS,ioos:station:USF.COMPS:SHP:1,2015-08-01T04:36:00Z,30.0600,-84.2910,28.18,1111122 
COMPS,ioos:station:USF.COMPS:SHP:1,2015-08-01T04:42:00Z,30.0600,-84.2910,28.38,1111122 
COMPS,ioos:station:USF.COMPS:SHP:1,2015-08-01T04:48:00Z,30.0600,-84.2910,28.48,1111122 
COMPS,ioos:station:USF.COMPS:SHP:1,2015-08-01T04:54:00Z,30.0600,-84.2910,28.6,1111122 
COMPS,ioos:station:USF.COMPS:SHP:1,2015-08-01T05:00:00Z,30.0600,-84.2910,28.5,1111122 
COMPS,ioos:station:USF.COMPS:SHP:1,2015-08-01T05:06:00Z,30.0600,-84.2910,28.46,1111122 
COMPS,ioos:station:USF.COMPS:SHP:1,2015-08-01T05:12:00Z,30.0600,-84.2910,28.45,1111122 
COMPS,ioos:station:USF.COMPS:SHP:1,2015-08-01T05:18:00Z,30.0600,-84.2910,28.57,1111122 
COMPS,ioos:station:USF.COMPS:SHP:1,2015-08-01T05:24:00Z,30.0600,-84.2910,28.33,1111122 
COMPS,ioos:station:USF.COMPS:SHP:1,2015-08-01T05:30:00Z,30.0600,-84.2910,28.34,1111122 
COMPS,ioos:station:USF.COMPS:SHP:1,2015-08-01T05:36:00Z,30.0600,-84.2910,28.39,1111122 
COMPS,ioos:station:USF.COMPS:SHP:1,2015-08-01T05:42:00Z,30.0600,-84.2910,28.55,1111122 
COMPS,ioos:station:USF.COMPS:SHP:1,2015-08-01T05:48:00Z,30.0600,-84.2910,28.42,1111122 
COMPS,ioos:station:USF.COMPS:SHP:1,2015-08-01T05:54:00Z,30.0600,-84.2910,28.63,1111122 
COMPS,ioos:station:USF.COMPS:SHP:1,2015-08-01T06:00:00Z,30.0600,-84.2910,28.62,1111122 
COMPS,ioos:station:USF.COMPS:SHP:1,2015-08-01T06:06:00Z,30.0600,-84.2910,28.79,1111122 
COMPS,ioos:station:USF.COMPS:SHP:1,2015-08-01T06:12:00Z,30.0600,-84.2910,28.65,1111122 
COMPS,ioos:station:USF.COMPS:SHP:1,2015-08-01T06:18:00Z,30.0600,-84.2910,28.53,1111122 
COMPS,ioos:station:USF.COMPS:SHP:1,2015-08-01T06:24:00Z,30.0600,-84.2910,28.55,1111122 
COMPS,ioos:station:USF.COMPS:SHP:1,2015-08-01T06:30:00Z,30.0600,-84.2910,28.66,1111122 
COMPS,ioos:station:USF.COMPS:SHP:1,2015-08-01T06:36:00Z,30.0600,-84.2910,28.67,1111122 
COMPS,ioos:station:USF.COMPS:SHP:1,2015-08-01T06:42:00Z,30.0600,-84.2910,28.64,1111122 
COMPS,ioos:station:USF.COMPS:SHP:1,2015-08-01T06:48:00Z,30.0600,-84.2910,28.56,1111122 
COMPS,ioos:station:USF.COMPS:SHP:1,2015-08-01T06:54:00Z,30.0600,-84.2910,28.76,1111122 
COMPS,ioos:station:USF.COMPS:SHP:1,2015-08-01T07:00:00Z,30.0600,-84.2910,28.79,1111122 
COMPS,ioos:station:USF.COMPS:SHP:1,2015-08-01T07:06:00Z,30.0600,-84.2910,28.75,1111122 
COMPS,ioos:station:USF.COMPS:SHP:1,2015-08-01T07:12:00Z,30.0600,-84.2910,28.73,1111122 
COMPS,ioos:station:USF.COMPS:SHP:1,2015-08-01T07:18:00Z,30.0600,-84.2910,28.79,1111122 
COMPS,ioos:station:USF.COMPS:SHP:1,2015-08-01T07:24:00Z,30.0600,-84.2910,28.76,1111122 
COMPS,ioos:station:USF.COMPS:SHP:1,2015-08-01T07:30:00Z,30.0600,-84.2910,28.73,1111122 
COMPS,ioos:station:USF.COMPS:SHP:1,2015-08-01T07:36:00Z,30.0600,-84.2910,28.78,1111122 
COMPS,ioos:station:USF.COMPS:SHP:1,2015-08-01T07:42:00Z,30.0600,-84.2910,28.88,1111122 
COMPS,ioos:station:USF.COMPS:SHP:1,2015-08-01T07:48:00Z,30.0600,-84.2910,28.77,1111122 
COMPS,ioos:station:USF.COMPS:SHP:1,2015-08-01T07:54:00Z,30.0600,-84.2910,28.67,1111122 
COMPS,ioos:station:USF.COMPS:SHP:1,2015-08-01T08:00:00Z,30.0600,-84.2910,28.78,1111122 
COMPS,ioos:station:USF.COMPS:SHP:1,2015-08-01T08:06:00Z,30.0600,-84.2910,28.84,1111122 
COMPS,ioos:station:USF.COMPS:SHP:1,2015-08-01T08:12:00Z,30.0600,-84.2910,28.98,1111122 
COMPS,ioos:station:USF.COMPS:SHP:1,2015-08-01T08:18:00Z,30.0600,-84.2910,28.81,1111122 
COMPS,ioos:station:USF.COMPS:SHP:1,2015-08-01T08:24:00Z,30.0600,-84.2910,28.82,1111122 
COMPS,ioos:station:USF.COMPS:SHP:1,2015-08-01T08:30:00Z,30.0600,-84.2910,28.8,1111122 
COMPS,ioos:station:USF.COMPS:SHP:1,2015-08-01T08:36:00Z,30.0600,-84.2910,28.95,1111122 
COMPS,ioos:station:USF.COMPS:SHP:1,2015-08-01T08:42:00Z,30.0600,-84.2910,28.86,1111122 
COMPS,ioos:station:USF.COMPS:SHP:1,2015-08-01T08:48:00Z,30.0600,-84.2910,28.77,1111122 
COMPS,ioos:station:USF.COMPS:SHP:1,2015-08-01T08:54:00Z,30.0600,-84.2910,28.77,1111122 
COMPS,ioos:station:USF.COMPS:SHP:1,2015-08-01T09:00:00Z,30.0600,-84.2910,28.9,1111122 
COMPS,ioos:station:USF.COMPS:SHP:1,2015-08-01T09:06:00Z,30.0600,-84.2910,28.74,1111122 
COMPS,ioos:station:USF.COMPS:SHP:1,2015-08-01T09:12:00Z,30.0600,-84.2910,28.7,1111122 
COMPS,ioos:station:USF.COMPS:SHP:1,2015-08-01T09:18:00Z,30.0600,-84.2910,28.6,1111122 
COMPS,ioos:station:USF.COMPS:SHP:1,2015-08-01T09:24:00Z,30.0600,-84.2910,28.09,1111122 
COMPS,ioos:station:USF.COMPS:SHP:1,2015-08-01T09:30:00Z,30.0600,-84.2910,27.7,1111122 
COMPS,ioos:station:USF.COMPS:SHP:1,2015-08-01T09:36:00Z,30.0600,-84.2910,27.39,1111122 
COMPS,ioos:station:USF.COMPS:SHP:1,2015-08-01T09:42:00Z,30.0600,-84.2910,27.06,1111122 
COMPS,ioos:station:USF.COMPS:SHP:1,2015-08-01T09:48:00Z,30.0600,-84.2910,26.85,1111122 
COMPS,ioos:station:USF.COMPS:SHP:1,2015-08-01T09:54:00Z,30.0600,-84.2910,26.74,1111122 
COMPS,ioos:station:USF.COMPS:SHP:1,2015-08-01T10:00:00Z,30.0600,-84.2910,26.49,1111122 
COMPS,ioos:station:USF.COMPS:SHP:1,2015-08-01T10:06:00Z,30.0600,-84.2910,26.48,1111122 
COMPS,ioos:station:USF.COMPS:SHP:1,2015-08-01T10:12:00Z,30.0600,-84.2910,26.48,1111122 
COMPS,ioos:station:USF.COMPS:SHP:1,2015-08-01T10:18:00Z,30.0600,-84.2910,25.98,1111122 
COMPS,ioos:station:USF.COMPS:SHP:1,2015-08-01T10:24:00Z,30.0600,-84.2910,25.49,1111122 
COMPS,ioos:station:USF.COMPS:SHP:1,2015-08-01T10:30:00Z,30.0600,-84.2910,25.37,1111122 
COMPS,ioos:station:USF.COMPS:SHP:1,2015-08-01T10:36:00Z,30.0600,-84.2910,25.22,1111122 
COMPS,ioos:station:USF.COMPS:SHP:1,2015-08-01T10:42:00Z,30.0600,-84.2910,25.59,1111122 
COMPS,ioos:station:USF.COMPS:SHP:1,2015-08-01T10:48:00Z,30.0600,-84.2910,25.53,1111122 
COMPS,ioos:station:USF.COMPS:SHP:1,2015-08-01T10:54:00Z,30.0600,-84.2910,25.3,1111122 
COMPS,ioos:station:USF.COMPS:SHP:1,2015-08-01T11:00:00Z,30.0600,-84.2910,25.31,1111122 
COMPS,ioos:station:USF.COMPS:SHP:1,2015-08-01T11:06:00Z,30.0600,-84.2910,25.46,1111122 
COMPS,ioos:station:USF.COMPS:SHP:1,2015-08-01T11:12:00Z,30.0600,-84.2910,25.33,1111122 
COMPS,ioos:station:USF.COMPS:SHP:1,2015-08-01T11:18:00Z,30.0600,-84.2910,25.39,1111122 
COMPS,ioos:station:USF.COMPS:SHP:1,2015-08-01T11:24:00Z,30.0600,-84.2910,25.54,1111122 
COMPS,ioos:station:USF.COMPS:SHP:1,2015-08-01T11:30:00Z,30.0600,-84.2910,25.54,1111122 
COMPS,ioos:station:USF.COMPS:SHP:1,2015-08-01T11:36:00Z,30.0600,-84.2910,25.48,1111122 
COMPS,ioos:station:USF.COMPS:SHP:1,2015-08-01T11:42:00Z,30.0600,-84.2910,25.49,1111122 
COMPS,ioos:station:USF.COMPS:SHP:1,2015-08-01T11:48:00Z,30.0600,-84.2910,25.52,1111122 
COMPS,ioos:station:USF.COMPS:SHP:1,2015-08-01T11:54:00Z,30.0600,-84.2910,25.62,1111122 
COMPS,ioos:station:USF.COMPS:SHP:1,2015-08-01T12:00:00Z,30.0600,-84.2910,25.65,1111122 
COMPS,ioos:station:USF.COMPS:SHP:1,2015-08-01T12:06:00Z,30.0600,-84.2910,25.76,1111122 
COMPS,ioos:station:USF.COMPS:SHP:1,2015-08-01T12:12:00Z,30.0600,-84.2910,25.87,1111122 
COMPS,ioos:station:USF.COMPS:SHP:1,2015-08-01T12:18:00Z,30.0600,-84.2910,25.94,1111122 
COMPS,ioos:station:USF.COMPS:SHP:1,2015-08-01T12:24:00Z,30.0600,-84.2910,26.07,1111122 
COMPS,ioos:station:USF.COMPS:SHP:1,2015-08-01T12:30:00Z,30.0600,-84.2910,26.15,1111122 
COMPS,ioos:station:USF.COMPS:SHP:1,2015-08-01T12:36:00Z,30.0600,-84.2910,26.33,1111122 
COMPS,ioos:station:USF.COMPS:SHP:1,2015-08-01T12:42:00Z,30.0600,-84.2910,26.54,1111122 
COMPS,ioos:station:USF.COMPS:SHP:1,2015-08-01T12:48:00Z,30.0600,-84.2910,26.65,1111122 
COMPS,ioos:station:USF.COMPS:SHP:1,2015-08-01T12:54:00Z,30.0600,-84.2910,26.61,1111122 
COMPS,ioos:station:USF.COMPS:SHP:1,2015-08-01T13:00:00Z,30.0600,-84.2910,26.62,1111122 
COMPS,ioos:station:USF.COMPS:SHP:1,2015-08-01T13:06:00Z,30.0600,-84.2910,26.77,1111122 
COMPS,ioos:station:USF.COMPS:SHP:1,2015-08-01T13:12:00Z,30.0600,-84.2910,26.96,1111122 
COMPS,ioos:station:USF.COMPS:SHP:1,2015-08-01T13:18:00Z,30.0600,-84.2910,26.78,1111122 
COMPS,ioos:station:USF.COMPS:SHP:1,2015-08-01T13:24:00Z,30.0600,-84.2910,26.73,1111122 
COMPS,ioos:station:USF.COMPS:SHP:1,2015-08-01T13:30:00Z,30.0600,-84.2910,26.95,1111122 
COMPS,ioos:station:USF.COMPS:SHP:1,2015-08-01T13:36:00Z,30.0600,-84.2910,27.1,1111122 
COMPS,ioos:station:USF.COMPS:SHP:1,2015-08-01T13:42:00Z,30.0600,-84.2910,27.27,1111122 
COMPS,ioos:station:USF.COMPS:SHP:1,2015-08-01T13:48:00Z,30.0600,-84.2910,27.4,1111122 
COMPS,ioos:station:USF.COMPS:SHP:1,2015-08-01T13:54:00Z,30.0600,-84.2910,27.54,1111122 
COMPS,ioos:station:USF.COMPS:SHP:1,2015-08-01T14:00:00Z,30.0600,-84.2910,27.92,1111122 
COMPS,ioos:station:USF.COMPS:SHP:1,2015-08-01T14:06:00Z,30.0600,-84.2910,27.99,1111122 
COMPS,ioos:station:USF.COMPS:SHP:1,2015-08-01T14:12:00Z,30.0600,-84.2910,28.05,1111122 
COMPS,ioos:station:USF.COMPS:SHP:1,2015-08-01T14:18:00Z,30.0600,-84.2910,28.08,1111122 
COMPS,ioos:station:USF.COMPS:SHP:1,2015-08-01T14:24:00Z,30.0600,-84.2910,28.33,1111122 
COMPS,ioos:station:USF.COMPS:SHP:1,2015-08-01T14:30:00Z,30.0600,-84.2910,28.05,1111122 
COMPS,ioos:station:USF.COMPS:SHP:1,2015-08-01T14:36:00Z,30.0600,-84.2910,28.02,1111122 
COMPS,ioos:station:USF.COMPS:SHP:1,2015-08-01T14:42:00Z,30.0600,-84.2910,28.14,1111122 
COMPS,ioos:station:USF.COMPS:SHP:1,2015-08-01T14:48:00Z,30.0600,-84.2910,28.21,1111122 
COMPS,ioos:station:USF.COMPS:SHP:1,2015-08-01T14:54:00Z,30.0600,-84.2910,28.33,1111122 
COMPS,ioos:station:USF.COMPS:SHP:1,2015-08-01T15:00:00Z,30.0600,-84.2910,28.33,1111122 
COMPS,ioos:station:USF.COMPS:SHP:1,2015-08-01T15:06:00Z,30.0600,-84.2910,28.37,1111122 
COMPS,ioos:station:USF.COMPS:SHP:1,2015-08-01T15:12:00Z,30.0600,-84.2910,28.11,1111122 
COMPS,ioos:station:USF.COMPS:SHP:1,2015-08-01T15:18:00Z,30.0600,-84.2910,28.27,1111122 
COMPS,ioos:station:USF.COMPS:SHP:1,2015-08-01T15:24:00Z,30.0600,-84.2910,28.61,1111122 
COMPS,ioos:station:USF.COMPS:SHP:1,2015-08-01T15:30:00Z,30.0600,-84.2910,28.7,1111122 
COMPS,ioos:station:USF.COMPS:SHP:1,2015-08-01T15:36:00Z,30.0600,-84.2910,28.94,1111122 
COMPS,ioos:station:USF.COMPS:SHP:1,2015-08-01T15:42:00Z,30.0600,-84.2910,28.71,1111122 
COMPS,ioos:station:USF.COMPS:SHP:1,2015-08-01T15:48:00Z,30.0600,-84.2910,28.66,1111122 
COMPS,ioos:station:USF.COMPS:SHP:1,2015-08-01T15:54:00Z,30.0600,-84.2910,28.87,1111122 
COMPS,ioos:station:USF.COMPS:SHP:1,2015-08-01T16:00:00Z,30.0600,-84.2910,29.01,1111122 
COMPS,ioos:station:USF.COMPS:SHP:1,2015-08-01T16:06:00Z,30.0600,-84.2910,28.98,1111122 
COMPS,ioos:station:USF.COMPS:SHP:1,2015-08-01T16:12:00Z,30.0600,-84.2910,29.16,1111122 
COMPS,ioos:station:USF.COMPS:SHP:1,2015-08-01T16:18:00Z,30.0600,-84.2910,29.24,1111122 
COMPS,ioos:station:USF.COMPS:SHP:1,2015-08-01T16:24:00Z,30.0600,-84.2910,29.26,1111122 
COMPS,ioos:station:USF.COMPS:SHP:1,2015-08-01T16:30:00Z,30.0600,-84.2910,29.51,1111122 
COMPS,ioos:station:USF.COMPS:SHP:1,2015-08-01T16:36:00Z,30.0600,-84.2910,29.24,1111122 
COMPS,ioos:station:USF.COMPS:SHP:1,2015-08-01T16:42:00Z,30.0600,-84.2910,29.16,1111122 
COMPS,ioos:station:USF.COMPS:SHP:1,2015-08-01T16:48:00Z,30.0600,-84.2910,29.29,1111122 
COMPS,ioos:station:USF.COMPS:SHP:1,2015-08-01T16:54:00Z,30.0600,-84.2910,29.33,1111122 
COMPS,ioos:station:USF.COMPS:SHP:1,2015-08-01T17:00:00Z,30.0600,-84.2910,29.27,1111122 
COMPS,ioos:station:USF.COMPS:SHP:1,2015-08-01T17:06:00Z,30.0600,-84.2910,29.13,1111122 
COMPS,ioos:station:USF.COMPS:SHP:1,2015-08-01T17:12:00Z,30.0600,-84.2910,29.24,1111122 
COMPS,ioos:station:USF.COMPS:SHP:1,2015-08-01T17:18:00Z,30.0600,-84.2910,29.42,1111122 
COMPS,ioos:station:USF.COMPS:SHP:1,2015-08-01T17:24:00Z,30.0600,-84.2910,29.6,1111122 
COMPS,ioos:station:USF.COMPS:SHP:1,2015-08-01T17:30:00Z,30.0600,-84.2910,29.52,1111122 
COMPS,ioos:station:USF.COMPS:SHP:1,2015-08-01T17:36:00Z,30.0600,-84.2910,29.52,1111122 
COMPS,ioos:station:USF.COMPS:SHP:1,2015-08-01T17:42:00Z,30.0600,-84.2910,29.73,1111122 
COMPS,ioos:station:USF.COMPS:SHP:1,2015-08-01T17:48:00Z,30.0600,-84.2910,29.71,1111122 
COMPS,ioos:station:USF.COMPS:SHP:1,2015-08-01T17:54:00Z,30.0600,-84.2910,29.63,1111122 
COMPS,ioos:station:USF.COMPS:SHP:1,2015-08-01T18:00:00Z,30.0600,-84.2910,29.74,1111122 
COMPS,ioos:station:USF.COMPS:SHP:1,2015-08-01T18:06:00Z,30.0600,-84.2910,29.82,1111122 
COMPS,ioos:station:USF.COMPS:SHP:1,2015-08-01T18:12:00Z,30.0600,-84.2910,29.81,1111122 
COMPS,ioos:station:USF.COMPS:SHP:1,2015-08-01T18:18:00Z,30.0600,-84.2910,29.83,1111122 
COMPS,ioos:station:USF.COMPS:SHP:1,2015-08-01T18:24:00Z,30.0600,-84.2910,29.92,1111122 
COMPS,ioos:station:USF.COMPS:SHP:1,2015-08-01T18:30:00Z,30.0600,-84.2910,29.86,1111122 
COMPS,ioos:station:USF.COMPS:SHP:1,2015-08-01T18:36:00Z,30.0600,-84.2910,30.15,1111122 
COMPS,ioos:station:USF.COMPS:SHP:1,2015-08-01T18:42:00Z,30.0600,-84.2910,30.2,1111122 
COMPS,ioos:station:USF.COMPS:SHP:1,2015-08-01T18:48:00Z,30.0600,-84.2910,30.16,1111122 
COMPS,ioos:station:USF.COMPS:SHP:1,2015-08-01T18:54:00Z,30.0600,-84.2910,30.1,1111122 
COMPS,ioos:station:USF.COMPS:SHP:1,2015-08-01T19:00:00Z,30.0600,-84.2910,30.35,1111122 
COMPS,ioos:station:USF.COMPS:SHP:1,2015-08-01T19:06:00Z,30.0600,-84.2910,29.93,1111122 
COMPS,ioos:station:USF.COMPS:SHP:1,2015-08-01T19:12:00Z,30.0600,-84.2910,29.73,1111122 
COMPS,ioos:station:USF.COMPS:SHP:1,2015-08-01T19:18:00Z,30.0600,-84.2910,29.73,1111122 
COMPS,ioos:station:USF.COMPS:SHP:1,2015-08-01T19:24:00Z,30.0600,-84.2910,29.7,1111122 
COMPS,ioos:station:USF.COMPS:SHP:1,2015-08-01T19:30:00Z,30.0600,-84.2910,28.9,1111122 
COMPS,ioos:station:USF.COMPS:SHP:1,2015-08-01T19:36:00Z,30.0600,-84.2910,27.04,1111122 
COMPS,ioos:station:USF.COMPS:SHP:1,2015-08-01T19:42:00Z,30.0600,-84.2910,26.58,1111122 
COMPS,ioos:station:USF.COMPS:SHP:1,2015-08-01T19:48:00Z,30.0600,-84.2910,26.54,1111122 
COMPS,ioos:station:USF.COMPS:SHP:1,2015-08-01T19:54:00Z,30.0600,-84.2910,26.15,1111122 
COMPS,ioos:station:USF.COMPS:SHP:1,2015-08-01T20:00:00Z,30.0600,-84.2910,25.67,1111122 
COMPS,ioos:station:USF.COMPS:SHP:1,2015-08-01T20:06:00Z,30.0600,-84.2910,25.53,1111122 
COMPS,ioos:station:USF.COMPS:SHP:1,2015-08-01T20:12:00Z,30.0600,-84.2910,25.51,1111122 
COMPS,ioos:station:USF.COMPS:SHP:1,2015-08-01T20:18:00Z,30.0600,-84.2910,25.59,1111122 
COMPS,ioos:station:USF.COMPS:SHP:1,2015-08-01T20:24:00Z,30.0600,-84.2910,25.37,1111122 
COMPS,ioos:station:USF.COMPS:SHP:1,2015-08-01T20:30:00Z,30.0600,-84.2910,25.47,1111122 
COMPS,ioos:station:USF.COMPS:SHP:1,2015-08-01T20:36:00Z,30.0600,-84.2910,25.42,1111122 
COMPS,ioos:station:USF.COMPS:SHP:1,2015-08-01T20:42:00Z,30.0600,-84.2910,25.58,1111122 
COMPS,ioos:station:USF.COMPS:SHP:1,2015-08-01T20:48:00Z,30.0600,-84.2910,25.45,1111122 
COMPS,ioos:station:USF.COMPS:SHP:1,2015-08-01T20:54:00Z,30.0600,-84.2910,25.55,1111122 
COMPS,ioos:station:USF.COMPS:SHP:1,2015-08-01T21:00:00Z,30.0600,-84.2910,25.56,1111122 
COMPS,ioos:station:USF.COMPS:SHP:1,2015-08-01T21:06:00Z,30.0600,-84.2910,25.81,1111122 
COMPS,ioos:station:USF.COMPS:SHP:1,2015-08-01T21:12:00Z,30.0600,-84.2910,25.86,1111122 
COMPS,ioos:station:USF.COMPS:SHP:1,2015-08-01T21:18:00Z,30.0600,-84.2910,25.96,1111122 
COMPS,ioos:station:USF.COMPS:SHP:1,2015-08-01T21:24:00Z,30.0600,-84.2910,26.01,1111122 
COMPS,ioos:station:USF.COMPS:SHP:1,2015-08-01T21:30:00Z,30.0600,-84.2910,26.17,1111122 
COMPS,ioos:station:USF.COMPS:SHP:1,2015-08-01T21:36:00Z,30.0600,-84.2910,26.05,1111122 
COMPS,ioos:station:USF.COMPS:SHP:1,2015-08-01T21:42:00Z,30.0600,-84.2910,25.95,1111122 
COMPS,ioos:station:USF.COMPS:SHP:1,2015-08-01T21:48:00Z,30.0600,-84.2910,25.81,1111122 
COMPS,ioos:station:USF.COMPS:SHP:1,2015-08-01T21:54:00Z,30.0600,-84.2910,25.89,1111122 
COMPS,ioos:station:USF.COMPS:SHP:1,2015-08-02T03:00:00Z,30.0600,-84.2910,25.42,1111122 
COMPS,ioos:station:USF.COMPS:SHP:1,2015-08-02T03:06:00Z,30.0600,-84.2910,25.4,1111122 
COMPS,ioos:station:USF.COMPS:SHP:1,2015-08-02T03:12:00Z,30.0600,-84.2910,25.47,1111122 
COMPS,ioos:station:USF.COMPS:SHP:1,2015-08-02T03:18:00Z,30.0600,-84.2910,25.53,1111122 
COMPS,ioos:station:USF.COMPS:SHP:1,2015-08-02T03:24:00Z,30.0600,-84.2910,25.39,1111122 
COMPS,ioos:station:USF.COMPS:SHP:1,2015-08-02T03:30:00Z,30.0600,-84.2910,25.42,1111122 
COMPS,ioos:station:USF.COMPS:SHP:1,2015-08-02T03:36:00Z,30.0600,-84.2910,25.37,1111122 
COMPS,ioos:station:USF.COMPS:SHP:1,2015-08-02T03:42:00Z,30.0600,-84.2910,25.56,1111122 
COMPS,ioos:station:USF.COMPS:SHP:1,2015-08-02T03:48:00Z,30.0600,-84.2910,25.42,1111122 
COMPS,ioos:station:USF.COMPS:SHP:1,2015-08-02T03:54:00Z,30.0600,-84.2910,25.31,1111122 
COMPS,ioos:station:USF.COMPS:SHP:1,2015-08-02T04:00:00Z,30.0600,-84.2910,25.32,1111122 
COMPS,ioos:station:USF.COMPS:SHP:1,2015-08-02T04:06:00Z,30.0600,-84.2910,25.36,1111122 
COMPS,ioos:station:USF.COMPS:SHP:1,2015-08-02T04:12:00Z,30.0600,-84.2910,25.55,1111122 
COMPS,ioos:station:USF.COMPS:SHP:1,2015-08-02T04:18:00Z,30.0600,-84.2910,25.47,1111122 
COMPS,ioos:station:USF.COMPS:SHP:1,2015-08-02T04:24:00Z,30.0600,-84.2910,25.4,1111122 
COMPS,ioos:station:USF.COMPS:SHP:1,2015-08-02T04:30:00Z,30.0600,-84.2910,25.42,1111122 
COMPS,ioos:station:USF.COMPS:SHP:1,2015-08-02T04:36:00Z,30.0600,-84.2910,25.54,1111122 
COMPS,ioos:station:USF.COMPS:SHP:1,2015-08-02T04:42:00Z,30.0600,-84.2910,25.44,1111122 
COMPS,ioos:station:USF.COMPS:SHP:1,2015-08-02T04:48:00Z,30.0600,-84.2910,25.2,1111122 
COMPS,ioos:station:USF.COMPS:SHP:1,2015-08-02T04:54:00Z,30.0600,-84.2910,25.28,1111122 
COMPS,ioos:station:USF.COMPS:SHP:1,2015-08-02T05:00:00Z,30.0600,-84.2910,25.35,1111122 
COMPS,ioos:station:USF.COMPS:SHP:1,2015-08-02T05:06:00Z,30.0600,-84.2910,25.05,1111122 
COMPS,ioos:station:USF.COMPS:SHP:1,2015-08-02T05:12:00Z,30.0600,-84.2910,24.92,1111122 
COMPS,ioos:station:USF.COMPS:SHP:1,2015-08-02T05:18:00Z,30.0600,-84.2910,24.97,1111122 
COMPS,ioos:station:USF.COMPS:SHP:1,2015-08-02T05:24:00Z,30.0600,-84.2910,25.11,1111122 
COMPS,ioos:station:USF.COMPS:SHP:1,2015-08-02T05:30:00Z,30.0600,-84.2910,24.89,1111122 
COMPS,ioos:station:USF.COMPS:SHP:1,2015-08-02T05:36:00Z,30.0600,-84.2910,24.86,1111122 
COMPS,ioos:station:USF.COMPS:SHP:1,2015-08-02T05:42:00Z,30.0600,-84.2910,24.83,1111122 
COMPS,ioos:station:USF.COMPS:SHP:1,2015-08-02T05:48:00Z,30.0600,-84.2910,25.02,1111122 
COMPS,ioos:station:USF.COMPS:SHP:1,2015-08-02T05:54:00Z,30.0600,-84.2910,24.92,1111122 
COMPS,ioos:station:USF.COMPS:SHP:1,2015-08-02T06:00:00Z,30.0600,-84.2910,24.83,1111122 
COMPS,ioos:station:USF.COMPS:SHP:1,2015-08-02T06:06:00Z,30.0600,-84.2910,24.85,1111122 
COMPS,ioos:station:USF.COMPS:SHP:1,2015-08-02T06:12:00Z,30.0600,-84.2910,24.75,1111122 
COMPS,ioos:station:USF.COMPS:SHP:1,2015-08-02T06:18:00Z,30.0600,-84.2910,24.85,1111122 
COMPS,ioos:station:USF.COMPS:SHP:1,2015-08-02T06:24:00Z,30.0600,-84.2910,24.77,1111122 
COMPS,ioos:station:USF.COMPS:SHP:1,2015-08-02T06:30:00Z,30.0600,-84.2910,24.82,1111122 
COMPS,ioos:station:USF.COMPS:SHP:1,2015-08-02T06:36:00Z,30.0600,-84.2910,24.96,1111122 
COMPS,ioos:station:USF.COMPS:SHP:1,2015-08-02T06:42:00Z,30.0600,-84.2910,24.96,1111122 
COMPS,ioos:station:USF.COMPS:SHP:1,2015-08-02T06:48:00Z,30.0600,-84.2910,24.77,1111122 
COMPS,ioos:station:USF.COMPS:SHP:1,2015-08-02T06:54:00Z,30.0600,-84.2910,24.72,1111122 
COMPS,ioos:station:USF.COMPS:SHP:1,2015-08-02T07:00:00Z,30.0600,-84.2910,24.76,1111122 
COMPS,ioos:station:USF.COMPS:SHP:1,2015-08-02T07:06:00Z,30.0600,-84.2910,24.96,1111122 
COMPS,ioos:station:USF.COMPS:SHP:1,2015-08-02T07:12:00Z,30.0600,-84.2910,24.86,1111122 
COMPS,ioos:station:USF.COMPS:SHP:1,2015-08-02T07:18:00Z,30.0600,-84.2910,24.69,1111122 
COMPS,ioos:station:USF.COMPS:SHP:1,2015-08-02T07:24:00Z,30.0600,-84.2910,24.86,1111122 
COMPS,ioos:station:USF.COMPS:SHP:1,2015-08-02T07:30:00Z,30.0600,-84.2910,24.99,1111122 
COMPS,ioos:station:USF.COMPS:SHP:1,2015-08-02T07:36:00Z,30.0600,-84.2910,24.67,1111122 
COMPS,ioos:station:USF.COMPS:SHP:1,2015-08-02T07:42:00Z,30.0600,-84.2910,24.7,1111122 
COMPS,ioos:station:USF.COMPS:SHP:1,2015-08-02T07:48:00Z,30.0600,-84.2910,24.56,1111122 
COMPS,ioos:station:USF.COMPS:SHP:1,2015-08-02T07:54:00Z,30.0600,-84.2910,24.63,1111122 
COMPS,ioos:station:USF.COMPS:SHP:1,2015-08-02T08:00:00Z,30.0600,-84.2910,24.51,1111122 
COMPS,ioos:station:USF.COMPS:SHP:1,2015-08-02T08:06:00Z,30.0600,-84.2910,24.53,1111122 
COMPS,ioos:station:USF.COMPS:SHP:1,2015-08-02T08:12:00Z,30.0600,-84.2910,24.5,1111122 
COMPS,ioos:station:USF.COMPS:SHP:1,2015-08-02T08:18:00Z,30.0600,-84.2910,24.66,1111122 
COMPS,ioos:station:USF.COMPS:SHP:1,2015-08-02T08:24:00Z,30.0600,-84.2910,24.62,1111122 
COMPS,ioos:station:USF.COMPS:SHP:1,2015-08-02T08:30:00Z,30.0600,-84.2910,24.59,1111122 
COMPS,ioos:station:USF.COMPS:SHP:1,2015-08-02T08:36:00Z,30.0600,-84.2910,24.5,1111122 
COMPS,ioos:station:USF.COMPS:SHP:1,2015-08-02T08:42:00Z,30.0600,-84.2910,24.64,1111122 
COMPS,ioos:station:USF.COMPS:SHP:1,2015-08-02T08:48:00Z,30.0600,-84.2910,24.46,1111122 
COMPS,ioos:station:USF.COMPS:SHP:1,2015-08-02T08:54:00Z,30.0600,-84.2910,24.45,1111122 
COMPS,ioos:station:USF.COMPS:SHP:1,2015-08-02T09:00:00Z,30.0600,-84.2910,24.42,1111122 
COMPS,ioos:station:USF.COMPS:SHP:1,2015-08-02T09:06:00Z,30.0600,-84.2910,24.49,1111122 